DW1188 Weather Reports


Display with metric or nautical units.
time (UTC)temp
F
wind
direction
speed
MPH
gust
MPH
rain 1hr
in
rain 24hr
in
rain mn
in
humidity
%
barometer
mb
20260901030345 74 351 0.0 0.0 0.00 0.00 0.00 33 1010.7
20260901025117 75 351 0.0 0.0 0.00 0.00 0.00 32 1010.8
20260901023853 76 351 0.0 0.0 0.00 0.00 0.00 30 1010.7
20260901022618 77 351 0.0 0.0 0.00 0.00 0.00 29 1010.8
20260901021445 78 351 0.0 0.0 0.00 0.00 0.00 29 1010.9
20260901014944 79 351 0.0 0.0 0.00 0.00 0.00 26 1011.1
20260901013713 80 350 0.0 0.0 0.00 0.00 0.00 25 1011.3
20260901012530 80 342 0.0 0.0 0.00 0.00 0.00 25 1011.3
20260901011308 80 320 0.0 0.0 0.00 0.00 0.00 25 1011.4
20260901010055 81 33 0.0 0.0 0.00 0.00 0.00 25 1011.6
20260901004831 81 41 0.0 0.0 0.00 0.00 0.00 25 1011.7
20260901003642 80 42 0.0 0.0 0.00 0.00 0.00 25 1011.8
20260901001101 80 331 0.0 0.0 0.00 0.00 0.00 25 1012.1
20260831235845 80 15 0.0 0.0 0.00 0.00 0.00 25 1012.3
20260831234619 80 15 0.0 0.0 0.00 0.00 0.00 26 1012.5
20260831232140 80 103 0.0 0.0 0.00 0.00 0.00 26 1012.7
20260831225623 80 336 0.0 0.0 0.00 0.00 0.00 26 1013.0
20260831224447 79 299 0.0 0.0 0.00 0.00 0.00 27 1013.2
20260831223226 79 317 0.0 0.0 0.00 0.00 0.00 26 1013.2
20260831221959 80 17 0.0 0.0 0.00 0.00 0.00 26 1013.5
20260831220802 78 137 0.0 0.0 0.00 0.00 0.00 26 1013.7
20260831215545 78 296 0.0 0.0 0.00 0.00 0.00 26 1013.8
20260831214352 77 297 0.0 1.0 0.00 0.00 0.00 27 1013.9
20260831213139 78 38 0.0 0.0 0.00 0.00 0.00 27 1014.2
20260831211955 77 80 0.0 0.0 0.00 0.00 0.00 27 1014.2
20260831210734 76 131 0.0 0.0 0.00 0.00 0.00 30 1014.4
20260831202854 75 50 0.0 0.0 0.00 0.00 0.00 28 1015.0
20260831201619 74 29 0.0 0.0 0.00 0.00 0.00 27 1015.2
20260831200350 74 51 0.0 0.0 0.00 0.00 0.00 28 1015.4
20260831195139 74 304 0.0 0.0 0.00 0.00 0.00 27 1015.6
20260831193920 74 182 0.0 0.0 0.00 0.00 0.00 26 1015.8
20260831192720 73 78 0.0 0.0 0.00 0.00 0.00 30 1016.1
20260831191441 72 194 0.0 0.0 0.00 0.00 0.00 33 1016.3
20260831190206 71 190 0.0 3.0 0.00 0.00 0.00 34 1016.4
20260831185008 71 308 0.0 0.0 0.00 0.00 0.00 32 1016.6
20260831183757 70 32 0.0 0.0 0.00 0.00 0.00 36 1016.8
20260831182532 69 242 0.0 0.0 0.00 0.00 0.00 35 1017.0
20260831181316 69 107 0.0 0.0 0.00 0.00 0.00 39 1017.0
20260831180044 68 42 0.0 0.0 0.00 0.00 0.00 43 1017.3
20260831174912 67 43 0.0 0.0 0.00 0.00 0.00 46 1017.4
20260831173706 67 51 0.0 0.0 0.00 0.00 0.00 45 1017.5
20260831172526 66 59 0.0 0.0 0.00 0.00 0.00 46 1017.7
20260831171314 65 90 0.0 0.0 0.00 0.00 0.00 47 1017.8
20260831170133 63 46 0.0 0.0 0.00 0.00 0.00 48 1017.9
20260831163611 61 53 0.0 0.0 0.00 0.00 0.00 52 1018.0
20260831162426 60 61 0.0 0.0 0.00 0.00 0.00 56 1018.1
20260831161220 59 11 0.0 0.0 0.00 0.00 0.00 58 1018.3
20260831154644 58 18 0.0 0.0 0.00 0.00 0.00 59 1018.5
20260831153442 57 20 0.0 0.0 0.00 0.00 0.00 61 1018.6
20260831152307 56 17 0.0 0.0 0.00 0.00 0.00 61 1018.6
20260831151131 56 40 0.0 0.0 0.00 0.00 0.00 61 1018.6
20260831145927 56 66 0.0 0.0 0.00 0.00 0.00 66 1018.7
20260831144715 55 68 0.0 0.0 0.00 0.00 0.00 70 1018.5
20260831143516 54 67 0.0 0.0 0.00 0.00 0.00 72 1018.4
20260831141012 52 76 0.0 0.0 0.00 0.00 0.00 75 1018.4
20260831135837 52 88 0.0 0.0 0.00 0.00 0.00 75 1018.3
20260831133352 50 84 0.0 0.0 0.00 0.00 0.00 75 1018.1
20260831132148 50 84 0.0 0.0 0.00 0.00 0.00 77 1018.2
20260831131011 50 86 0.0 0.0 0.00 0.00 0.00 79 1018.1
20260831125834 50 103 0.0 0.0 0.00 0.00 0.00 79 1018.0
20260831124559 50 107 0.0 0.0 0.00 0.00 0.00 79 1017.9
20260831123355 50 121 0.0 0.0 0.00 0.00 0.00 79 1017.9
20260831122148 50 121 0.0 0.0 0.00 0.00 0.00 79 1017.7
20260831120919 51 121 0.0 0.0 0.00 0.00 0.00 79 1017.8
20260831115731 51 121 0.0 0.0 0.00 0.00 0.00 79 1017.8
20260831114518 52 122 0.0 0.0 0.00 0.00 0.00 79 1017.8
20260831113333 52 141 0.0 0.0 0.00 0.00 0.00 79 1017.7
20260831105519 53 130 0.0 0.0 0.00 0.00 0.00 77 1017.6
20260831104255 54 148 0.0 0.0 0.00 0.00 0.00 77 1017.8
20260831103054 54 138 0.0 0.0 0.00 0.00 0.00 76 1017.6
20260831101844 54 148 0.0 5.0 0.00 0.00 0.00 76 1017.6
20260831094031 54 135 0.0 0.0 0.00 0.00 0.00 75 1017.8
20260831092857 54 134 0.0 0.0 0.00 0.00 0.00 74 1017.7
20260831084859 55 142 0.0 0.0 0.00 0.00 0.00 70 1017.8
20260831083619 55 142 0.0 0.0 0.00 0.00 0.00 69 1017.8
20260831082409 55 156 0.0 0.0 0.00 0.00 0.00 69 1017.9
20260831081241 55 144 0.0 0.0 0.00 0.00 0.00 68 1017.8
20260831080038 55 142 0.0 0.0 0.00 0.00 0.00 67 1017.7
20260831074810 56 144 0.0 6.0 0.00 0.00 0.00 66 1017.7
20260831073532 56 164 0.0 3.0 0.00 0.00 0.00 65 1017.6
20260831072320 56 138 0.0 0.0 0.00 0.00 0.00 66 1017.7
20260831065742 57 140 0.0 0.0 0.00 0.00 0.00 65 1017.7
20260831064518 57 142 0.0 0.0 0.00 0.00 0.00 64 1017.7
20260831063303 57 145 0.0 0.0 0.00 0.00 0.00 63 1017.8
20260831060726 58 134 0.0 0.0 0.00 0.00 0.00 62 1017.8
20260831055507 58 140 0.0 0.0 0.00 0.00 0.00 61 1017.8
20260831054331 58 140 0.0 0.0 0.00 0.00 0.00 60 1017.7
20260831051807 59 118 0.0 0.0 0.00 0.00 0.00 55 1017.8
20260831050546 59 118 0.0 0.0 0.00 0.00 0.00 54 1017.8
20260831045318 60 118 0.0 0.0 0.00 0.00 0.00 52 1017.7
20260831044142 60 118 0.0 0.0 0.00 0.00 0.00 51 1017.8
20260831042947 61 118 0.0 0.0 0.00 0.00 0.00 49 1017.8
20260831041757 62 196 0.0 0.0 0.00 0.00 0.00 45 1017.9
20260831040617 63 196 0.0 0.0 0.00 0.00 0.00 44 1017.8
20260831035401 63 196 0.0 0.0 0.00 0.00 0.00 44 1017.9
20260831032751 64 196 0.0 0.0 0.00 0.00 0.00 42 1017.7
20260831031618 64 225 0.0 0.0 0.00 0.00 0.00 41 1017.7